Location: Ohmer (historical)
(38.0096°N, 122.0227°W)
Time: 01:08:02
(UTC+00:00)

Cosmos 2292 Rocket - Pass Details

Date: 14 February 2026
Orbit: 369 x 1226 km, 83.0° (Epoch: 10 March)

Event Time Altitude Azimuth Distance (km) Brightness Sun altitude
Rises 13:00:06 0° 348° (NNW) 3,178 7.1 -24.0°
Reaches altitude 10° 13:02:13 10° 346° (NNW) 2,371 6.4 -23.6°
Maximum altitude 13:07:36 63° 266° (W) 1,035 4.3 -22.5°
Drops below altitude 10° 13:14:16 10° 187° (S) 2,920 6.9 -21.2°
Sets 13:17:08 0° 184° (S) 3,969 7.7 -20.7°
